����������;��������(kVARh)
2019-10-07 00:00;10,55
2019-10-07 00:15;10,6
2019-10-07 00:30;11,35
2019-10-07 00:45;11,75
2019-10-07 01:00;12,6
2019-10-07 01:15;12,6
2019-10-07 01:30;11,85
2019-10-07 01:45;12,05
2019-10-07 02:00;13,25
2019-10-07 02:15;13,25
2019-10-07 02:30;13,35
2019-10-07 02:45;14,05
2019-10-07 03:00;13,7
2019-10-07 03:15;10,95
2019-10-07 03:30;10,7
2019-10-07 03:45;11,35
2019-10-07 04:00;12,05
2019-10-07 04:15;11,6
2019-10-07 04:30;12,35
2019-10-07 04:45;12,2
2019-10-07 05:00;12,6
2019-10-07 05:15;12,3
2019-10-07 05:30;12,2
2019-10-07 05:45;11,5
2019-10-07 06:00;12,25
2019-10-07 06:15;10,55
2019-10-07 06:30;12,8
2019-10-07 06:45;15,4
2019-10-07 07:00;14
2019-10-07 07:15;13,05
2019-10-07 07:30;14,8
2019-10-07 07:45;31,55
2019-10-07 08:00;31,9
2019-10-07 08:15;24,45
2019-10-07 08:30;24,25
2019-10-07 08:45;26,1
2019-10-07 09:00;39,55
2019-10-07 09:15;38,35
2019-10-07 09:30;42,4
2019-10-07 09:45;44,5
2019-10-07 10:00;45,4
2019-10-07 10:15;48,25
2019-10-07 10:30;51,05
2019-10-07 10:45;44,9
2019-10-07 11:00;49,65
2019-10-07 11:15;54,25
2019-10-07 11:30;55,5
2019-10-07 11:45;58,55
2019-10-07 12:00;61,05
2019-10-07 12:15;57,9
2019-10-07 12:30;56,45
2019-10-07 12:45;57,15
2019-10-07 13:00;57,5
2019-10-07 13:15;65
2019-10-07 13:30;66,1
2019-10-07 13:45;59,85
2019-10-07 14:00;63,25
2019-10-07 14:15;61
2019-10-07 14:30;60,4
2019-10-07 14:45;64,45
2019-10-07 15:00;58,2
2019-10-07 15:15;65,25
2019-10-07 15:30;62,5
2019-10-07 15:45;61,35
2019-10-07 16:00;62,05
2019-10-07 16:15;54,2
2019-10-07 16:30;51,3
2019-10-07 16:45;47,25
2019-10-07 17:00;46,95
2019-10-07 17:15;44,6
2019-10-07 17:30;47,6
2019-10-07 17:45;45,1
2019-10-07 18:00;44,65
2019-10-07 18:15;48,6
2019-10-07 18:30;41,8
2019-10-07 18:45;41,65
2019-10-07 19:00;44,9
2019-10-07 19:15;35,25
2019-10-07 19:30;33,45
2019-10-07 19:45;37,3
2019-10-07 20:00;34,7
2019-10-07 20:15;32,9
2019-10-07 20:30;32,7
2019-10-07 20:45;31,75
2019-10-07 21:00;32,15
2019-10-07 21:15;34
2019-10-07 21:30;34,3
2019-10-07 21:45;33,9
2019-10-07 22:00;33,8
2019-10-07 22:15;30,55
2019-10-07 22:30;27,25
2019-10-07 22:45;19,45
2019-10-07 23:00;21,95
2019-10-07 23:15;22,7
2019-10-07 23:30;19
2019-10-07 23:45;14,45
2019-10-08 00:00;12,7
2019-10-08 00:15;13
2019-10-08 00:30;14,05
2019-10-08 00:45;10,8
2019-10-08 01:00;10,6
2019-10-08 01:15;9,9
2019-10-08 01:30;10,65
2019-10-08 01:45;9,95
2019-10-08 02:00;11,75
2019-10-08 02:15;11,05
2019-10-08 02:30;9,85
2019-10-08 02:45;9,75
2019-10-08 03:00;9,85
2019-10-08 03:15;9,5
2019-10-08 03:30;9,4
2019-10-08 03:45;9,55
2019-10-08 04:00;9,9
2019-10-08 04:15;10,4
2019-10-08 04:30;11,1
2019-10-08 04:45;11,2
2019-10-08 05:00;12,2
2019-10-08 05:15;12,65
2019-10-08 05:30;11,15
2019-10-08 05:45;10,5
2019-10-08 06:00;9,75
2019-10-08 06:15;10,75
2019-10-08 06:30;12,75
2019-10-08 06:45;12,25
2019-10-08 07:00;16,95
2019-10-08 07:15;19,15
2019-10-08 07:30;16,8
2019-10-08 07:45;31,55
2019-10-08 08:00;22,35
2019-10-08 08:15;15,5
2019-10-08 08:30;25,15
2019-10-08 08:45;32,75
2019-10-08 09:00;32,35
2019-10-08 09:15;40,6
2019-10-08 09:30;34,55
2019-10-08 09:45;41,2
2019-10-08 10:00;50,9
2019-10-08 10:15;46,2
2019-10-08 10:30;51,25
2019-10-08 10:45;55,35
2019-10-08 11:00;53,7
2019-10-08 11:15;63,15
2019-10-08 11:30;61,55
2019-10-08 11:45;59,65
2019-10-08 12:00;64,15
2019-10-08 12:15;63
2019-10-08 12:30;58,8
2019-10-08 12:45;65
2019-10-08 13:00;64,3
2019-10-08 13:15;60,2
2019-10-08 13:30;65,6
2019-10-08 13:45;60,3
2019-10-08 14:00;62,65
2019-10-08 14:15;65,35
2019-10-08 14:30;56,4
2019-10-08 14:45;64,5
2019-10-08 15:00;63
2019-10-08 15:15;56,3
2019-10-08 15:30;62,85
2019-10-08 15:45;55,9
2019-10-08 16:00;54,65
2019-10-08 16:15;54,9
2019-10-08 16:30;54,55
2019-10-08 16:45;49,25
2019-10-08 17:00;48,4
2019-10-08 17:15;44,8
2019-10-08 17:30;42
2019-10-08 17:45;40,15
2019-10-08 18:00;40,75
2019-10-08 18:15;36,5
2019-10-08 18:30;38,3
2019-10-08 18:45;29,3
2019-10-08 19:00;35,15
2019-10-08 19:15;25,25
2019-10-08 19:30;26
2019-10-08 19:45;30,3
2019-10-08 20:00;29,4
2019-10-08 20:15;26,8
2019-10-08 20:30;26,4
2019-10-08 20:45;26,7
2019-10-08 21:00;27,2
2019-10-08 21:15;29,05
2019-10-08 21:30;29,2
2019-10-08 21:45;26,95
2019-10-08 22:00;23,7
2019-10-08 22:15;23,75
2019-10-08 22:30;22,85
2019-10-08 22:45;21,4
2019-10-08 23:00;22,85
2019-10-08 23:15;23,55
2019-10-08 23:30;19,45
2019-10-08 23:45;19,35
2019-10-09 00:00;15,3
2019-10-09 00:15;15,8
2019-10-09 00:30;16,7
2019-10-09 00:45;17,8
2019-10-09 01:00;17,8
2019-10-09 01:15;13,85
2019-10-09 01:30;13,45
2019-10-09 01:45;13,3
2019-10-09 02:00;12,7
2019-10-09 02:15;14,5
2019-10-09 02:30;14,05
2019-10-09 02:45;15,55
2019-10-09 03:00;15,7
2019-10-09 03:15;16,65
2019-10-09 03:30;15,25
2019-10-09 03:45;16,35
2019-10-09 04:00;16,6
2019-10-09 04:15;17,3
2019-10-09 04:30;18
2019-10-09 04:45;18,5
2019-10-09 05:00;18,45
2019-10-09 05:15;19,25
2019-10-09 05:30;18,95
2019-10-09 05:45;18,95
2019-10-09 06:00;17,7
2019-10-09 06:15;16,5
2019-10-09 06:30;17,95
2019-10-09 06:45;18,5
2019-10-09 07:00;17,1
2019-10-09 07:15;16,6
2019-10-09 07:30;16,7
2019-10-09 07:45;40
2019-10-09 08:00;34,15
2019-10-09 08:15;22,5
2019-10-09 08:30;32,75
2019-10-09 08:45;36,5
2019-10-09 09:00;44,7
2019-10-09 09:15;41,7
2019-10-09 09:30;42,3
2019-10-09 09:45;41,45
2019-10-09 10:00;43,65
2019-10-09 10:15;47,1
2019-10-09 10:30;48,2
2019-10-09 10:45;62,6
2019-10-09 11:00;60,4
2019-10-09 11:15;59,05
2019-10-09 11:30;65,35
2019-10-09 11:45;61,15
2019-10-09 12:00;62,95
2019-10-09 12:15;67,9
2019-10-09 12:30;61,7
2019-10-09 12:45;70,3
2019-10-09 13:00;68,05
2019-10-09 13:15;66,1
2019-10-09 13:30;59,7
2019-10-09 13:45;65,35
2019-10-09 14:00;67,15
2019-10-09 14:15;65,6
2019-10-09 14:30;64,85
2019-10-09 14:45;60,75
2019-10-09 15:00;57,7
2019-10-09 15:15;61,6
2019-10-09 15:30;60,8
2019-10-09 15:45;54,4
2019-10-09 16:00;57,15
2019-10-09 16:15;51
2019-10-09 16:30;54,3
2019-10-09 16:45;54,8
2019-10-09 17:00;55
2019-10-09 17:15;53,25
2019-10-09 17:30;52
2019-10-09 17:45;43,8
2019-10-09 18:00;58,95
2019-10-09 18:15;51,5
2019-10-09 18:30;52,2
2019-10-09 18:45;38,7
2019-10-09 19:00;49,85
2019-10-09 19:15;34,15
2019-10-09 19:30;35,5
2019-10-09 19:45;38,6
2019-10-09 20:00;37,6
2019-10-09 20:15;35,1
2019-10-09 20:30;26,65
2019-10-09 20:45;26,4
2019-10-09 21:00;27
2019-10-09 21:15;26,4
2019-10-09 21:30;27,8
2019-10-09 21:45;20,55
2019-10-09 22:00;17,65
2019-10-09 22:15;14,4
2019-10-09 22:30;12,95
2019-10-09 22:45;13,1
2019-10-09 23:00;14,7
2019-10-09 23:15;15
2019-10-09 23:30;17,4
2019-10-09 23:45;19,5
2019-10-10 00:00;16,1
2019-10-10 00:15;14,35
2019-10-10 00:30;16,05
2019-10-10 00:45;16,15
2019-10-10 01:00;15,85
2019-10-10 01:15;16,4
2019-10-10 01:30;16,55
2019-10-10 01:45;16,65
2019-10-10 02:00;16,3
2019-10-10 02:15;17,15
2019-10-10 02:30;17,5
2019-10-10 02:45;17
2019-10-10 03:00;17,4
2019-10-10 03:15;17,65
2019-10-10 03:30;18,3
2019-10-10 03:45;21
2019-10-10 04:00;19,3
2019-10-10 04:15;20
2019-10-10 04:30;21,6
2019-10-10 04:45;21,6
2019-10-10 05:00;21,1
2019-10-10 05:15;22,65
2019-10-10 05:30;21,95
2019-10-10 05:45;20,15
2019-10-10 06:00;20,6
2019-10-10 06:15;19,45
2019-10-10 06:30;18,9
2019-10-10 06:45;24,8
2019-10-10 07:00;24
2019-10-10 07:15;24,4
2019-10-10 07:30;27,9
2019-10-10 07:45;43,95
2019-10-10 08:00;40
2019-10-10 08:15;32,65
2019-10-10 08:30;35,2
2019-10-10 08:45;45,5
2019-10-10 09:00;51,9
2019-10-10 09:15;55,9
2019-10-10 09:30;56,1
2019-10-10 09:45;48,2
2019-10-10 10:00;56,05
2019-10-10 10:15;51,15
2019-10-10 10:30;60,45
2019-10-10 10:45;54,15
2019-10-10 11:00;57,4
2019-10-10 11:15;59,8
2019-10-10 11:30;61,3
2019-10-10 11:45;60,95
2019-10-10 12:00;57,75
2019-10-10 12:15;62,8
2019-10-10 12:30;64,15
2019-10-10 12:45;61,75
2019-10-10 13:00;63,65
2019-10-10 13:15;59,55
2019-10-10 13:30;60,6
2019-10-10 13:45;58,9
2019-10-10 14:00;58,95
2019-10-10 14:15;58,45
2019-10-10 14:30;60,4
2019-10-10 14:45;61,85
2019-10-10 15:00;64,35
2019-10-10 15:15;57,3
2019-10-10 15:30;59,45
2019-10-10 15:45;47,85
2019-10-10 16:00;56,3
2019-10-10 16:15;47,95
2019-10-10 16:30;49,45
2019-10-10 16:45;51,35
2019-10-10 17:00;43,8
2019-10-10 17:15;49,85
2019-10-10 17:30;44,1
2019-10-10 17:45;47,1
2019-10-10 18:00;44
2019-10-10 18:15;46,35
2019-10-10 18:30;47,25
2019-10-10 18:45;49
2019-10-10 19:00;39,05
2019-10-10 19:15;34,45
2019-10-10 19:30;36,55
2019-10-10 19:45;37,85
2019-10-10 20:00;37,05
2019-10-10 20:15;34,95
2019-10-10 20:30;35,3
2019-10-10 20:45;36
2019-10-10 21:00;25
2019-10-10 21:15;25,3
2019-10-10 21:30;26,05
2019-10-10 21:45;24,05
2019-10-10 22:00;23,3
2019-10-10 22:15;23,45
2019-10-10 22:30;17,75
2019-10-10 22:45;18,45
2019-10-10 23:00;20,25
2019-10-10 23:15;20,85
2019-10-10 23:30;23,75
2019-10-10 23:45;25,6
2019-10-11 00:00;22,6
2019-10-11 00:15;23,85
2019-10-11 00:30;18,1
2019-10-11 00:45;16,6
2019-10-11 01:00;17,35
2019-10-11 01:15;17,2
2019-10-11 01:30;17,55
2019-10-11 01:45;17,7
2019-10-11 02:00;17,75
2019-10-11 02:15;17,25
2019-10-11 02:30;18,95
2019-10-11 02:45;20
2019-10-11 03:00;20,35
2019-10-11 03:15;20,2
2019-10-11 03:30;19,15
2019-10-11 03:45;20,5
2019-10-11 04:00;21,65
2019-10-11 04:15;20,55
2019-10-11 04:30;20,85
2019-10-11 04:45;22,4
2019-10-11 05:00;22,15
2019-10-11 05:15;22
2019-10-11 05:30;21,8
2019-10-11 05:45;21,05
2019-10-11 06:00;19,95
2019-10-11 06:15;19,8
2019-10-11 06:30;16,85
2019-10-11 06:45;17,75
2019-10-11 07:00;18
2019-10-11 07:15;20,85
2019-10-11 07:30;24,25
2019-10-11 07:45;40,4
2019-10-11 08:00;35,25
2019-10-11 08:15;33,2
2019-10-11 08:30;42,95
2019-10-11 08:45;42,6
2019-10-11 09:00;44,9
2019-10-11 09:15;50,95
2019-10-11 09:30;49,2
2019-10-11 09:45;57,65
2019-10-11 10:00;56,2
2019-10-11 10:15;51,65
2019-10-11 10:30;51,75
2019-10-11 10:45;58,15
2019-10-11 11:00;64,25
2019-10-11 11:15;61,05
2019-10-11 11:30;66,45
2019-10-11 11:45;62,3
2019-10-11 12:00;66,15
2019-10-11 12:15;70,15
2019-10-11 12:30;62,65
2019-10-11 12:45;69,35
2019-10-11 13:00;63,8
2019-10-11 13:15;67,65
2019-10-11 13:30;70,9
2019-10-11 13:45;69,2
2019-10-11 14:00;68,85
2019-10-11 14:15;70,25
2019-10-11 14:30;65,7
2019-10-11 14:45;70,65
2019-10-11 15:00;71,8
2019-10-11 15:15;58,3
2019-10-11 15:30;64,6
2019-10-11 15:45;65,9
2019-10-11 16:00;62,15
2019-10-11 16:15;63,75
2019-10-11 16:30;48,45
2019-10-11 16:45;47,7
2019-10-11 17:00;50,25
2019-10-11 17:15;43,2
2019-10-11 17:30;55,8
2019-10-11 17:45;53,45
2019-10-11 18:00;43,85
2019-10-11 18:15;40,1
2019-10-11 18:30;45,3
2019-10-11 18:45;50,8
2019-10-11 19:00;31,85
2019-10-11 19:15;35,65
2019-10-11 19:30;43,85
2019-10-11 19:45;41,25
2019-10-11 20:00;41,5
2019-10-11 20:15;38,2
2019-10-11 20:30;37,75
2019-10-11 20:45;36,95
2019-10-11 21:00;38,4
2019-10-11 21:15;33,7
2019-10-11 21:30;32,4
2019-10-11 21:45;29,6
2019-10-11 22:00;29,7
2019-10-11 22:15;29,7
2019-10-11 22:30;28,15
2019-10-11 22:45;23,85
2019-10-11 23:00;20,95
2019-10-11 23:15;19,85
2019-10-11 23:30;21,8
2019-10-11 23:45;26,2
2019-10-12 00:00;21,3
2019-10-12 00:15;21,95
2019-10-12 00:30;23,45
2019-10-12 00:45;22,9
2019-10-12 01:00;17,35
2019-10-12 01:15;18,15
2019-10-12 01:30;18,8
2019-10-12 01:45;19,75
2019-10-12 02:00;19,85
2019-10-12 02:15;20,2
2019-10-12 02:30;20,1
2019-10-12 02:45;20,6
2019-10-12 03:00;21,85
2019-10-12 03:15;21,4
2019-10-12 03:30;20,7
2019-10-12 03:45;19,5
2019-10-12 04:00;19,85
2019-10-12 04:15;19,8
2019-10-12 04:30;20,8
2019-10-12 04:45;21,05
2019-10-12 05:00;21,95
2019-10-12 05:15;21,75
2019-10-12 05:30;21,6
2019-10-12 05:45;21,4
2019-10-12 06:00;20,5
2019-10-12 06:15;19,5
2019-10-12 06:30;17,25
2019-10-12 06:45;18
2019-10-12 07:00;19,85
2019-10-12 07:15;23,45
2019-10-12 07:30;23,5
2019-10-12 07:45;22,4
2019-10-12 08:00;20,15
2019-10-12 08:15;16,45
2019-10-12 08:30;22,7
2019-10-12 08:45;28
2019-10-12 09:00;28,45
2019-10-12 09:15;27,45
2019-10-12 09:30;27,6
2019-10-12 09:45;26,25
2019-10-12 10:00;25,05
2019-10-12 10:15;24,65
2019-10-12 10:30;25,95
2019-10-12 10:45;26
2019-10-12 11:00;26
2019-10-12 11:15;25
2019-10-12 11:30;24,35
2019-10-12 11:45;25,2
2019-10-12 12:00;25,35
2019-10-12 12:15;25,65
2019-10-12 12:30;25,85
2019-10-12 12:45;25,6
2019-10-12 13:00;23,75
2019-10-12 13:15;25,4
2019-10-12 13:30;25,05
2019-10-12 13:45;24,6
2019-10-12 14:00;25,55
2019-10-12 14:15;25,4
2019-10-12 14:30;25,45
2019-10-12 14:45;25
2019-10-12 15:00;25,75
2019-10-12 15:15;26,55
2019-10-12 15:30;26,6
2019-10-12 15:45;26,75
2019-10-12 16:00;28,55
2019-10-12 16:15;29,75
2019-10-12 16:30;30,55
2019-10-12 16:45;31,5
2019-10-12 17:00;31
2019-10-12 17:15;29,3
2019-10-12 17:30;29
2019-10-12 17:45;28,85
2019-10-12 18:00;30,15
2019-10-12 18:15;30,1
2019-10-12 18:30;29,9
2019-10-12 18:45;33,25
2019-10-12 19:00;30,75
2019-10-12 19:15;29,75
2019-10-12 19:30;29,75
2019-10-12 19:45;29,9
2019-10-12 20:00;31,2
2019-10-12 20:15;29,6
2019-10-12 20:30;28,35
2019-10-12 20:45;29,75
2019-10-12 21:00;31,95
2019-10-12 21:15;24,2
2019-10-12 21:30;24,1
2019-10-12 21:45;21,95
2019-10-12 22:00;20,8
2019-10-12 22:15;21,7
2019-10-12 22:30;22,25
2019-10-12 22:45;17,65
2019-10-12 23:00;18,8
2019-10-12 23:15;18,6
2019-10-12 23:30;21,9
2019-10-12 23:45;21,2
2019-10-13 00:00;13,45
2019-10-13 00:15;14,15
2019-10-13 00:30;13,85
2019-10-13 00:45;14,3
2019-10-13 01:00;12,3
2019-10-13 01:15;12,75
2019-10-13 01:30;11,8
2019-10-13 01:45;11,95
2019-10-13 02:00;14,45
2019-10-13 02:15;13,25
2019-10-13 02:30;12,25
2019-10-13 02:45;12,95
2019-10-13 03:00;13,5
2019-10-13 03:15;13,95
2019-10-13 03:30;13
2019-10-13 03:45;12,85
2019-10-13 04:00;13,55
2019-10-13 04:15;14,1
2019-10-13 04:30;14,45
2019-10-13 04:45;22,45
2019-10-13 05:00;23,9
2019-10-13 05:15;23,25
2019-10-13 05:30;23,4
2019-10-13 05:45;22,75
2019-10-13 06:00;23,6
2019-10-13 06:15;21,6
2019-10-13 06:30;20,65
2019-10-13 06:45;21,7
2019-10-13 07:00;21,05
2019-10-13 07:15;20,35
2019-10-13 07:30;21,35
2019-10-13 07:45;21,9
2019-10-13 08:00;20,1
2019-10-13 08:15;20,25
2019-10-13 08:30;20,3
2019-10-13 08:45;20,1
2019-10-13 09:00;22,4
2019-10-13 09:15;21,55
2019-10-13 09:30;22,5
2019-10-13 09:45;20,8
2019-10-13 10:00;20,3
2019-10-13 10:15;21,9
2019-10-13 10:30;25,05
2019-10-13 10:45;26,55
2019-10-13 11:00;24,8
2019-10-13 11:15;23,4
2019-10-13 11:30;23,2
2019-10-13 11:45;22,8
2019-10-13 12:00;22,25
2019-10-13 12:15;22,7
2019-10-13 12:30;29,85
2019-10-13 12:45;30,5
2019-10-13 13:00;31,1
2019-10-13 13:15;30,45
2019-10-13 13:30;29,65
2019-10-13 13:45;30,3
2019-10-13 14:00;31,85
2019-10-13 14:15;31,85
2019-10-13 14:30;33,3
2019-10-13 14:45;33,6
2019-10-13 15:00;33
2019-10-13 15:15;34,4
2019-10-13 15:30;34,85
2019-10-13 15:45;35,1
2019-10-13 16:00;33,7
2019-10-13 16:15;35,15
2019-10-13 16:30;34,75
2019-10-13 16:45;34,45
2019-10-13 17:00;34,8
2019-10-13 17:15;33,65
2019-10-13 17:30;31,65
2019-10-13 17:45;31,7
2019-10-13 18:00;31,05
2019-10-13 18:15;30,85
2019-10-13 18:30;31,05
2019-10-13 18:45;31,35
2019-10-13 19:00;31,5
2019-10-13 19:15;29,7
2019-10-13 19:30;29,2
2019-10-13 19:45;30,65
2019-10-13 20:00;31,85
2019-10-13 20:15;32,25
2019-10-13 20:30;32,55
2019-10-13 20:45;33,9
2019-10-13 21:00;33,8
2019-10-13 21:15;30,05
2019-10-13 21:30;25,85
2019-10-13 21:45;25,7
2019-10-13 22:00;27,05
2019-10-13 22:15;27,3
2019-10-13 22:30;27,2
2019-10-13 22:45;26,75
2019-10-13 23:00;26,8
2019-10-13 23:15;18,85
2019-10-13 23:30;20,8
2019-10-13 23:45;23,4

